Home   Weather   Midland   Past weeks

Flag for USA Past Weather in Midland, Texas, USA — Yesterday and Last 2 Weeks

Now
87 °F

Clear.


Feels Like: 85 °F
Forecast: 74 / 96 °F
Wind: 9 mph from South

Location: Midland - Midland Airpark

Current Time: Jul 21, 2017 at 12:00:56 am

Latest Report: Jul 20, 2017 at 11:15 pm


Visibility: 10 mi

Pressure: 30.09 "Hg (27.36 "Hg at 847m altitude)

Humidity: 30%

Dew Point: 52 °F

Location of MidlandLocation

Past Weather in Midland — Graph

°F

Midland Temperature Yesterday

Maximum temperature yesterday: 98 °F (at 4:35 pm)
Minimum temperature yesterday: 75 °F (at 4:55 am)
Average temperature yesterday: 87 °F

High & Low Weather Summary for the Past Weeks

 TemperatureHumidityPressure
High98 °F (Jul 20, 4:35 pm)86% (Jul 6, 5:55 am)30.26 "Hg (Jul 6, 5:55 am)
Low68 °F (Jul 6, 6:15 am)17% (Jul 10, 4:55 pm)29.93 "Hg (Jul 11, 6:15 pm)
Average84 °F46%30.11 "Hg
* Reported Jul 5 10:35 pm — Jul 20 10:35 pm, Midland. Weather by CustomWeather, © 2017

Note: Actual official high and low records may vary slightly from our data, if they occured in-between our weather recording intervals... More about our weather records

Advertising

Midland Weather History for the Previous 24 Hours

Scroll right to see more
 ConditionsComfort  
Time TempWeatherWind HumidityBarometerVisibility
10:35 pm
Thu, Jul 20
88 °FClear.8 mph29%30.08 "Hg10 mi
10:15 pm89 °FClear.9 mph28%30.08 "Hg10 mi
9:55 pm90 °FClear.9 mph26%30.07 "Hg10 mi
9:35 pm90 °FClear.12 mph25%30.06 "Hg10 mi
9:15 pm91 °FClear.13 mph25%30.06 "Hg10 mi
8:55 pm92 °FClear.12 mph24%30.04 "Hg10 mi
8:35 pm93 °FSunny.13 mph23%30.04 "Hg10 mi
7:55 pm94 °FSunny.13 mph24%30.03 "Hg10 mi
7:15 pm96 °FSunny.14 mph23%30.03 "Hg10 mi
6:55 pm97 °FSunny.13 mph23%30.03 "Hg10 mi
6:35 pm97 °FSunny.9 mph22%30.03 "Hg10 mi
6:15 pm98 °FSunny.14 mph23%30.04 "Hg10 mi
5:55 pm98 °FSunny.9 mph23%30.05 "Hg10 mi
5:35 pm98 °FSunny.12 mph23%30.06 "Hg10 mi
5:15 pm96 °FSunny.14 mph25%30.06 "Hg10 mi
4:55 pm98 °FSunny.10 mph23%30.07 "Hg10 mi
4:35 pm98 °FSunny.13 mph23%30.09 "Hg10 mi
4:15 pm98 °FSunny.10 mph22%30.10 "Hg10 mi
3:55 pm96 °FSunny.13 mph24%30.10 "Hg10 mi
3:35 pm97 °FSunny.14 mph25%30.11 "Hg10 mi
3:15 pm96 °FSunny.8 mph24%30.12 "Hg10 mi
2:35 pm97 °FSunny.14 mph26%30.14 "Hg10 mi
1:55 pm95 °FSunny.10 mph26%30.15 "Hg10 mi
1:35 pm94 °FSunny.12 mph28%30.16 "Hg10 mi
1:15 pm93 °FSunny.12 mph30%30.18 "Hg10 mi
12:55 pm93 °FSunny.14 mph30%30.19 "Hg10 mi
12:35 pm92 °FSunny.13 mph32%30.19 "Hg10 mi
12:15 pm92 °FSunny.14 mph32%30.19 "Hg10 mi
11:55 am91 °FSunny.14 mph33%30.20 "Hg10 mi
11:35 am90 °FSunny.10 mph35%30.21 "Hg10 mi
11:15 am89 °FSunny.13 mph39%30.21 "Hg10 mi
10:55 am88 °FSunny.15 mph41%30.21 "Hg10 mi
10:15 am85 °FSunny.9 mph51%30.21 "Hg10 mi
9:55 am83 °FSunny.10 mph53%30.21 "Hg10 mi
9:35 am82 °FSunny.12 mph57%30.21 "Hg10 mi
9:15 am80 °FSunny.13 mph60%30.22 "Hg10 mi
8:55 am79 °FSunny.13 mph62%30.21 "Hg10 mi
8:35 am79 °FSunny.14 mph62%30.21 "Hg10 mi
6:55 am76 °FSunny.9 mph62%30.19 "Hg10 mi
6:35 am76 °FClear.8 mph60%30.19 "Hg10 mi
6:15 am77 °FClear.9 mph60%30.19 "Hg10 mi
5:55 am77 °FClear.9 mph58%30.18 "Hg10 mi
5:35 am76 °FClear.5 mph57%30.18 "Hg10 mi
5:15 am76 °FClear.3 mph58%30.17 "Hg10 mi
4:55 am75 °FClear.No wind59%30.16 "Hg10 mi
4:35 am75 °FClear.No wind59%30.15 "Hg10 mi
4:15 am76 °FClear.No wind59%30.15 "Hg10 mi
3:55 am76 °FClear.No wind57%30.15 "Hg10 mi
3:35 am76 °FClear.No wind57%30.16 "Hg10 mi
3:15 am77 °FClear.3 mph56%30.16 "Hg10 mi
2:55 am77 °FClear.No wind56%30.16 "Hg10 mi
2:35 am80 °FClear.No wind50%30.16 "Hg10 mi
1:55 am80 °FClear.3 mph49%30.16 "Hg10 mi
1:35 am81 °FClear.3 mph48%30.16 "Hg10 mi
12:55 am82 °FClear.6 mph46%30.16 "Hg10 mi
12:35 am82 °FClear.6 mph45%30.16 "Hg10 mi
12:15 am83 °FClear.6 mph44%30.15 "Hg10 mi
Weather by CustomWeather, © 2017

See weather overviewHow to use our weather pages